Starlink 4004

operational
NORAD ID: 52656 Int'l Des: 2022-053 Owner: SPXS Country: US Constellation: starlink
LEOCIRCULAR

Über Starlink 4004

Beschreibung wird geladen...

Live-Position

3D-Globus wird geladen...

Nächste Überflüge

Höhenverlauf

Altitude vs Time

uPlot chart will show altitude changes over time

Zweizeiliger Elementsatz

1 52656U 22053A 25303.59668735 .00001267 00000-0 97702-4 0 9993
2 52656 53.2213 18.1385 0001964 88.9043 271.2174 15.08833065191475
Epoch: 30. Okt. 2025 • Age: 19 hours

Aktueller Status

Höhe 539.8 km
Geschwindigkeit 7.60 km/s
Subsatellitenpunkt 22.14°N, 150.6°W
Startdatum 18. Mai 2022
Alter 3.4 years
Typ internet

Technische Details

Klassifizierung Payload
Masse 297.00 kg
Trockenmasse 275.00 kg
Gesamtmasse 297.00 kg
Länge 0.20 m
Durchmesser 2.80 m
Spannweite 9.00 m
Form Box + pan
Hersteller SPXS
Bus-Typ Starlink
Phasenstatus In Orbit
Besitzer/Staat SPXS/US

Große Konstellationen

Loading constellations...